CO3D 4 (64901 NORAD) Tracking and Keplerian Element Data

This shows tracking and keplerian element data for the satellite.

Feedback or suggestion? Click here.




ElementValue
Catalog64901
NameCO3D 4
Epoch Orbit2225
Epoch Day353.62321823
Epoch Year2025
RAAN69.8917
Inclination97.434
Eccentricity0.0001264
Argument of Perigee174.7354
Mean Anonmoly185.3894
Mean Motion15.20230123
Decay Rate4.564E-05
L11 64901U 25156C 25353.62321823 .00004564 00000+0 21367-3 0 9994
L22 64901 97.4340 69.8917 0001264 174.7354 185.3894 15.20230123 22251



Live tracking and technical data element details for CO3D 4 (NORAD 64901). CO3D 4 can be tracked NOW for your location showing map with azimuth and elevation plus other details from your city location.







IsCatalogInMostPopularTable: catalog: 64901, numindb: 18
Update: records affected: 1



GetName: 64901 CO3D 4

Hit Count: updated at: Tue, 21 Apr 2026 21:41:34 GMT